Miscellaneous Local Product
Issued by NWS Hastings, NE

Home | Current Version | Previous Version | Text Only | Print | Product List | Glossary On
Versions: 1 2 3 4 5 6 7 8 9 10 11 12 13 14 15 16 17 18 19 20 21 22 23 24 25 26 27 28 29 30 31 32 33 34 35 36 37 38 39 40 41 42 43 44 45 46 47 48 49 50
658
AXUS43 KGID 230002
MISGRI

GID CWA HOURLY WEATHER ROUNDUP
NATIONAL WEATHER SERVICE HASTINGS NE
600 PM CST MON JAN 22 2018

NOTE: "FAIR" INDICATES FEW OR NO CLOUDS BELOW 12,000 FEET WITH NO
SIGNIFICANT WEATHER AND/OR OBSTRUCTIONS TO VISIBILITY.

...SOUTH CENTRAL NEBRASKA...

CITY           SKY/WX    TMP DP  RH WIND       PRES   REMARKS
GRAND ISLAND   PTCLDY    27  22  81 NW24G36   29.85R WCI  12
KEARNEY        PTCLDY    30  23  75 NW16G25   29.89R WCI  19
HASTINGS       CLOUDY    30  22  72 NW25G33   29.86R WCI  16
ORD            PTCLDY    28  22  78 NW21      29.88R WCI  15
YORK           LGT SNOW  27  27 100 NW29      29.80R WCI  11
AURORA           N/A     26  24  91 NW29G37   29.84R WCI  10
LEXINGTON      CLEAR     29  22  73 NW13      29.93R WCI  19
HOLDREGE       CLOUDY    29  25  82 NW8       29.91R WCI  21
HEBRON         CLOUDY    32  27  80 NW21G26   29.82R WCI  20

...NEBRASKA PANHANDLE...

CITY           SKY/WX    TMP DP  RH WIND       PRES   REMARKS
CHADRON        CLEAR     17  10  74 W3        30.05R
ALLIANCE       CLEAR     23  15  71 NW9       30.00R WCI  13
SCOTTSBLUFF    CLEAR     28  18  66 NW12      30.04R WCI  18
SIDNEY         CLEAR     28  16  60 NW22      30.01R WCI  14

...WESTERN AND NORTH CENTRAL NEBRASKA...

CITY           SKY/WX    TMP DP  RH WIND       PRES   REMARKS
VALENTINE      CLEAR     28  20  71 NW13      29.98R WCI  17
AINSWORTH      CLEAR     27  23  87 NW15      29.95R WCI  15
ONEILL         CLOUDY    24  23  96 NW23      29.91R WCI   9
BROKEN BOW     CLEAR     28  20  71 NW20      29.91R WCI  15
IMPERIAL       CLEAR     28  18  66 NW15      30.01R WCI  16
NORTH PLATTE   CLEAR     28  17  63 W15       29.98R WCI  16
MCCOOK         CLEAR     28  20  71 NW18      29.98R WCI  15

...EASTERN NEBRASKA...

CITY           SKY/WX    TMP DP  RH WIND       PRES   REMARKS
NORFOLK        LGT SNOW  24  22  91 N26G36    29.82R FOG     WCI   8
SO SIOUX CITY  LGT SNOW  29  27  92 N25G35    29.76R BLWGSNOWWCI  14
TEKAMAH        LGT SNOW  30  29  96 N28G38    29.72R VSB 1   WCI  15
COLUMBUS       LGT SNOW  25  23  92 MISG      29.81R FOG
ALBION         MIX PCPN  26  23  87 N23G38    29.86R WCI  11
OMAHA EPPLEY   LGT SNOW  31  28  89 N31G47    29.68R VSB 3/4 WCI  16
OFFUTT AFB     LGT SNOW  30  28  93 N23G35    29.65R FOG     WCI  17
MILLARD        LGT SNOW  32  29  89 NW20G29   29.70R WCI  20
LINCOLN        CLOUDY    28  24  85 NW21G38   29.77R BLWGSNOWWCI  15
NEBRASKA CITY  LGT SNOW  31  31 100 N29G36    29.65R WCI  17
BEATRICE       MIX PCPN  29  27  91 NW28G33   29.75R WCI  14
FALLS CITY     CLOUDY    32  27  81 NW24G39   29.62R WCI  19

...NORTHERN KANSAS...

CITY           SKY/WX    TMP DP  RH WIND       PRES   REMARKS
GOODLAND       FLURRIES  25  18  74 NW13      30.01R WCI  14
HILL CITY      CLEAR     32  24  72 NW17G26   29.96R WCI  21
NORTON         CLEAR     30  21  69 W17       29.95R WCI  18
PHILLIPSBURG   CLEAR     34  25  69 NW14G20   29.95R WCI  24
SMITH CENTER   CLEAR     32  25  74 NW17      29.90R WCI  21
HAYS           CLEAR     35  23  61 NW21G29   29.94R WCI  24
RUSSELL        CLEAR     35  28  75 NW22      29.91R WCI  23
CONCORDIA      CLOUDY    34  27  75 NW22G31   29.81R WCI  22
SALINA         CLOUDY    38  29  70 NW26G36   29.84R WCI  26
TOPEKA         LGT SNOW  32  30  92 NW23G40   29.67R FOG     WCI  19



USA.gov is the U.S. government's official web portal to all federal, state and local government web resources and services.